Weather observations for the past three days for
New Orleans, New Orleans International Airport
Metric (Imperial)
Date Time (cdt) Wind (kph) Vis. (km) Weather Sky Cond. Temperature (ºC) Relative Humidity Wind Chill (°C) Heat Index (°C) Pressure Precipitation (cm)
Air Dwpt 6 hour altimeter (cm) sea level (mb) 1 hr 3 hr 6 hr
Max. Min.
29 23:53 E 11 16.09 Overcast FEW050 OVC140 26.1 19.4 67% 27 76.28 1017.1
29 22:53 E 17 16.09 Overcast FEW060 SCT110 OVC140 25.6 18.9 67% 27 76.3 1017.6
29 21:53 E 19 16.09 Overcast FEW045 SCT140 OVC180 26.1 20 69% 27 76.35 1018.1
29 20:53 NE 30 G 54 16.09 Overcast FEW025 FEW045 BKN140 OVC200 26.1 21.1 74% 28 76.33 1018.0
29 19:53 N 26 G 46 16.09 Overcast FEW025 FEW040 SCT110 BKN160 OVC250 26.7 21.7 74% 29 76.33 1017.7
29 18:53 NW 6 16.09 Overcast FEW045 FEW110 BKN150 OVC250 28.3 22.8 32.8 28.3 72% 32 76.3 1017.4
29 17:53 S 11 16.09 Mostly Cloudy FEW045 SCT075 BKN110 BKN250 30 22.2 63% 33 76.25 1017.0
29 16:53 E 9 16.09 Mostly Cloudy FEW045 FEW070 SCT130 BKN250 31.7 19.4 48% 33 76.25 1016.8
29 15:53 S 19 16.09 Mostly Cloudy FEW045 FEW090 SCT160 BKN250 32.2 21.1 52% 35 76.25 1017.0
29 14:53 S 13 16.09 Partly Cloudy FEW038TCU SCT090 SCT250 31.1 21.7 57% 34 76.33 1017.7
29 13:53 S 13 16.09 Partly Cloudy FEW036 SCT250 32.2 23.9 62% 38 76.35 1018.2
29 12:53 S 15 16.09 Mostly Cloudy FEW030 BKN250 31.7 23.3 32.2 23.3 61% 37 76.38 1018.4
29 11:53 S 13 16.09 Partly Cloudy FEW030 SCT250 31.7 23.3 61% 37 76.43 1019.2
29 10:53 SE 13 16.09 Partly Cloudy FEW120 SCT250 31.1 22.8 61% 35 76.48 1019.8
29 09:53 SE 9 16.09 Mostly Cloudy BKN110 BKN250 30 21.7 61% 33 76.5 1020.2
29 08:53 NE 7 16.09 Mostly Cloudy BKN120 BKN250 28.9 21.1 63% 31 76.48 1019.7
29 07:53 NE 9 16.09 Partly Cloudy FEW080 SCT250 27.8 20.6 65% 30 76.48 1020.0
29 06:53 Calm 16.09 Mostly Cloudy BKN250 23.3 21.7 25.6 22.2 91% 76.43 1019.4
29 05:53 Calm 16.09 Mostly Cloudy BKN250 22.2 21.1 94% 76.38 1018.4
29 04:53 Calm 16.09 Mostly Cloudy BKN250 23.9 21.1 84% 24 76.33 1017.8
29 03:53 E 7 16.09 Mostly Cloudy BKN250 23.9 21.7 88% 24 76.3 1017.4
29 02:53 Calm 16.09 Mostly Cloudy BKN250 23.3 21.7 91% 76.25 1017.0
29 01:53 E 6 16.09 Mostly Cloudy BKN250 24.4 22.2 88% 25 76.23 1016.6
29 00:53 NW 6 16.09 Mostly Cloudy BKN250 24.4 22.2 26.1 22.2 88% 25 76.28 1017.2 0.23
28 23:53 N 7 16.09 Mostly Cloudy BKN250 26.1 20.6 72% 28 76.28 1017.1
28 22:53 Calm 16.09 Mostly Cloudy SCT110 BKN200 23.9 20 79% 24 76.28 1017.1
28 21:53 N 15 16.09 Mostly Cloudy BKN110 BKN200 24.4 19.4 74% 25 76.2 1016.2 0.23
28 20:53 Calm 16.09 Mostly Cloudy FEW110 BKN250 23.9 18.9 74% 25 76.17 1015.7 0.03
28 19:53 S 11 16.09 Light Rain FEW110 BKN250 22.2 20 87% 76.4 1018.8 0.2
28 18:53 NW 24 G 43 9.66 Thunderstorm Light Rain FEW035CB BKN100 OVC250 23.9 18.9 35.6 23.3 74% 25 76.53 1020.4 0.2 0.2
28 17:53 W 39 G 48 6.44 Thunderstorm Rain and Breezy FEW035CB SCT060 BKN070 OVC130 26.7 23.3 82% 29 76.43 1019.3
28 16:53 NW 13 16.09 Thunderstorm FEW035CB BKN055 OVC200 31.1 23.9 66% 37 76.35 1018.1
28 15:53 NE 13 16.09 Overcast FEW035 SCT055 OVC250 33.9 16.1 34% 34 76.25 1016.9
28 14:53 NE 15 16.09 Thunderstorm FEW035CB BKN055 OVC250 33.9 20.6 46% 37 76.25 1016.8
28 13:53 NE 17 16.09 Mostly Cloudy BKN043 BKN250 35.6 20 40% 38 76.23 1016.6
28 12:53 NE 19 16.09 Mostly Cloudy FEW032 BKN045 BKN250 34.4 21.1 35 28.3 46% 38 76.3 1017.4
28 11:53 NE 17 16.09 Mostly Cloudy FEW032 BKN045 BKN250 33.9 24.4 58% 41 76.35 1018.2
28 10:53 NE 7 16.09 Mostly Cloudy FEW025 BKN250 32.8 25.6 66% 41 76.33 1017.9
28 09:53 NE 11 12.87 Mostly Cloudy FEW020 BKN250 31.7 25.6 70% 40 76.3 1017.5
28 08:53 NE 11 11.27 Mostly Cloudy FEW013 BKN250 29.4 25.6 80% 36 76.28 1017.2
28 07:53 N 7 11.27 Overcast SCT012 OVC250 28.9 26.1 85% 36 76.28 1017.2
28 06:53 N 9 9.66 Fog/Mist FEW010 FEW055 OVC250 28.3 26.7 28.3 25.6 91% 35 76.25 1017.0
28 05:53 NW 7 8.05 Fog/Mist FEW055 BKN250 27.2 26.1 94% 32 76.25 1016.8
28 04:53 Calm 14.48 Mostly Cloudy FEW055 BKN200 25.6 25 97% 27 76.23 1016.4
28 03:53 Calm 16.09 Mostly Cloudy FEW055 BKN250 26.7 25.6 94% 30 76.23 1016.4
28 02:53 Calm 16.09 Mostly Cloudy BKN055 26.7 25.6 94% 30 76.23 1016.5
28 01:53 SW 6 16.09 Partly Cloudy SCT023 26.7 25.6 94% 30 76.2 1016.0
28 00:53 SW 6 16.09 Partly Cloudy FEW027 SCT033 26.7 25.6 31.1 26.7 94% 30 76.17 1015.7
27 23:53 SW 9 16.09 Mostly Cloudy BKN250 27.2 25.6 91% 31 76.17 1015.7
27 22:53 SW 11 16.09 A Few Clouds FEW020 FEW250 27.8 25.6 88% 33 76.15 1015.6
27 21:53 SW 11 16.09 A Few Clouds FEW250 28.3 26.1 88% 34 76.1 1014.9
27 20:53 S 15 16.09 A Few Clouds FEW250 28.9 26.1 85% 36 76.02 1013.9
27 19:53 S 11 16.09 A Few Clouds FEW036 FEW250 30 26.1 80% 38 75.95 1012.9
27 18:53 S 17 16.09 Mostly Cloudy BKN036 31.1 26.7 30.6 77% 40 75.92 1012.5
27 17:53 S 15 16.09 Mostly Cloudy BKN036 33 27 71% 44 75.92 1012.6
27 16:53 S 11 16.09 Mostly Cloudy BKN036 33 27 71% 44 75.95 1012.9
27 15:53 S 15 16.09 Mostly Cloudy BKN036 33.3 26.7 68% 44 75.95 1012.8
27 14:53 S 13 16.09 Overcast OVC036 32.2 26.1 70% 41 76 1013.3
27 13:53 SE 13 14.48 Partly Cloudy SCT030 32.8 26.1 68% 42 76 1013.6
27 12:53 SW 9 12.87 Light Rain FEW029 BKN043 OVC250 30.6 25.6 32.2 27.8 75% 38 76.05 1014.1
27 11:53 S 11 14.48 Mostly Cloudy SCT027 BKN037 31.1 25 70% 38 76.07 1014.3
27 10:53 SW 9 14.48 Mostly Cloudy BKN024 BKN033 BKN048 30.6 25.6 75% 38 76.07 1014.4
27 09:53 SW 15 12.87 Mostly Cloudy FEW023 FEW043 BKN130 30 25.6 77% 37 76.02 1013.9
27 08:53 SW 19 16.09 Mostly Cloudy SCT014 BKN028 BKN130 28.9 25.6 82% 35 76.02 1013.7
27 07:53 Vrbl 9 16.09 Mostly Cloudy FEW019 BKN028 BKN120 27.8 25.6 88% 33 76 1013.3
27 06:53 SW 7 16.09 Mostly Cloudy FEW012 SCT080 BKN250 26.7 25.6 27.8 26.7 94% 30 75.95 1012.8
27 05:53 S 11 16.09 Mostly Cloudy SCT037 BKN075 BKN250 26.7 25 90% 30 75.9 1012.0
27 04:53 S 9 16.09 Mostly Cloudy BKN041 BKN200 26.7 25 90% 30 75.84 1011.3
27 03:53 S 7 16.09 Mostly Cloudy FEW017 SCT034 BKN200 26.7 25 90% 30 75.82 1011.2
27 02:53 S 9 16.09 A Few Clouds FEW034 27.2 25.6 91% 31 75.77 1010.5
27 01:53 S 11 16.09 Overcast OVC042 27.8 25 85% 32 75.79 1010.9
27 00:53 S 11 16.09 Overcast FEW018 OVC038 27.8 25.6 29.4 27.2 88% 33 75.84 1011.5
Date Time (cdt) Wind (kph) Vis. (km) Weather Sky Cond. Air Dwpt Max. Min. Relative Humidity Wind Chill (°C) Heat Index (°C) altimeter (cm) sea level (mb) 1 hr 3 hr 6 hr
6 hour
Temperature (ºC) Pressure Precipitation (cm)